Location: Ferintosh
(52.7647°N, 112.9692°W)
Time: 15:31:39
(UTC+00:00)

Transit 2A - Pass Details

Date: 27 May 2024
Orbit: 593 x 959 km, 66.7° (Epoch: 14 June)

Event Time Altitude Azimuth Distance (km) Brightness Sun altitude
Rises 12:10:58 0° 319° (NW) 3,334 9.2 5.9°
Reaches altitude 10° 12:13:23 10° 325° (NW) 2,455 8.6 6.2°
Maximum altitude 12:18:59 52° 41° (NE) 1,096 7.6 7.0°
Drops below altitude 10° 12:25:01 10° 118° (ESE) 2,642 9.4 7.8°
Sets 12:27:42 0° 123° (ESE) 3,609 10.0 8.1°
